DMSP 5D-2 F13 DEB

Satellite information

Favourite Embed

Satellite Type and Status

DEBRISDECAYED

Key statistics

Satellite DMSP 5D-2 F13 DEB at a glance.

Uptime

10878

Days in orbit

Revolutions

≈ 14.3

Per day

Orbit

SSO

Sun Synchronous Orbit

Inclination

98.7

Latest

Satellite identification and parameters

Extended collection of information and parameters for DMSP 5D-2 F13 DEB.

Object identification

Identified? True

Debris? True

Object name: DMSP 5D-2 F13 DEB

International designator: 1995-015FP

Object number (NORAD): 40675

Object ID (CCSDS): 40675

Country: UNITED STATES OF AMERICA (US)

Current information (Y/N): Y

RCS size: SMALL

Orbital parameters

Decay date: Jan. 3, 2025

Period: 100.815 minutes

Inclination: 98.7361 deg

SMA: 7175.376 km

Apoapsis: 799.545 km

Periapsis: 794.937 km

RAAN: 65.4086 deg

Eccentricy: 0.0003211

Argument of periapsis: 37.4188 deg

Mean anomaly: 322.7216 deg

Mean motion: 14.28353779 rev/day

Mean motion (dot): 0.00009543 rev/day2

B* drag term: 0.0038334 1/REarth

Two-line elements (TLE)

Creation date: Feb. 11, 2024, 10:36 p.m.

Reference frame: TEME

Reference center: EARTH

Epoch: Feb. 11, 2024, 12:29 p.m. UTC

TLE line 0: 0 DMSP 5D-2 F13 DEB

TLE line 1: 1 40675U 95015FP 24042.52020857 .00009543 00000-0 38334-2 0 9997

TLE line 2: 2 40675 98.7361 65.4086 0003211 37.4188 322.7216 14.28353779457980

Live tracking on map

Satellite DMSP 5D-2 F13 DEB has decayed and is no longer in orbit. No tracking available.

In-orbit conjunctions

Satellite DMSP 5D-2 F13 DEB has decayed and is no longer in orbit. No conjunctions available.

Associated space launch

Military meteorological satellite

DMSP 5D-2 F13 DEB was lifted into orbit during the mission ‘Atlas E | DMSP-5D2 F13’, on board a Atlas E space rocket.

The launch took place on March 24, 1995, 2:05 p.m. from Space Launch Complex 3W.

For more information about the launch, click the button.

Launch to space Atlas E | DMSP-5D2 F13
Atlas E | DMSP-5D2 F13

Agency: N/A

Status: Launch Successful

Launch date: March 24, 1995, 2:05 p.m. UTC

Rocket: Atlas E

Launch pad: Space Launch Complex 3W

Location: Vandenberg SFB, CA, USA

...

Latest news about this satellite

There are no fresh news available about this satellite. Check back as we update our databases every day.


Newsletter sign-up

Weekly statistics, charts and insights to help you stay on top of the space industry.